| time (UTC) | temp F | wind direction | speed MPH | gust MPH | rain 1hr in | rain 24hr in | rain mn in | humidity % | barometer mb |
| 20260510033359 | 45 | 45 | 2.0 | 3.0 | 0.00 | 0.36 | 0.36 | 99 | 1012.1 |
| 20260510032856 | 45 | 60 | 2.0 | 3.0 | 0.00 | 0.36 | 0.36 | 99 | 1012.1 |
| 20260510032353 | 45 | 75 | 0.0 | 3.0 | 0.00 | 0.36 | 0.36 | 99 | 1012.2 |
| 20260510031848 | 46 | 89 | 2.0 | 2.0 | 0.00 | 0.36 | 0.36 | 99 | 1012.1 |
| 20260510031344 | 46 | 54 | 0.0 | 1.0 | 0.00 | 0.36 | 0.36 | 99 | 1012.1 |
| 20260510030843 | 46 | 55 | 0.0 | 1.0 | 0.00 | 0.36 | 0.36 | 99 | 1012.1 |
| 20260510030340 | 46 | 340 | 0.0 | 2.0 | 0.00 | 0.36 | 0.36 | 99 | 1012.2 |
| 20260510025838 | 46 | 87 | 1.0 | 2.0 | 0.00 | 0.36 | 0.36 | 99 | 1012.2 |
| 20260510025335 | 46 | 70 | 1.0 | 2.0 | 0.00 | 0.36 | 0.36 | 99 | 1012.0 |
| 20260510024832 | 46 | 70 | 1.0 | 2.0 | 0.00 | 0.36 | 0.36 | 99 | 1012.3 |
| 20260510024329 | 46 | 74 | 1.0 | 2.0 | 0.00 | 0.36 | 0.36 | 99 | 1012.1 |
| 20260510023825 | 46 | 48 | 2.0 | 3.0 | 0.00 | 0.36 | 0.36 | 99 | 1012.3 |
| 20260510023321 | 46 | 59 | 2.0 | 3.0 | 0.00 | 0.36 | 0.36 | 99 | 1012.1 |
| 20260510022819 | 46 | 66 | 2.0 | 2.0 | 0.00 | 0.36 | 0.36 | 99 | 1012.2 |
| 20260510022317 | 47 | 47 | 2.0 | 3.0 | 0.00 | 0.36 | 0.36 | 99 | 1012.4 |
| 20260510021812 | 47 | 41 | 1.0 | 2.0 | 0.00 | 0.36 | 0.36 | 99 | 1012.3 |
| 20260510021310 | 48 | 44 | 1.0 | 2.0 | 0.00 | 0.36 | 0.36 | 99 | 1012.2 |
| 20260510020805 | 47 | 78 | 1.0 | 2.0 | 0.00 | 0.36 | 0.36 | 99 | 1012.2 |
| 20260510020300 | 47 | 124 | 0.0 | 3.0 | 0.00 | 0.36 | 0.36 | 99 | 1012.2 |
| 20260510015756 | 47 | 50 | 2.0 | 3.0 | 0.00 | 0.36 | 0.36 | 99 | 1012.0 |
| 20260510015252 | 48 | 68 | 0.0 | 1.0 | 0.00 | 0.36 | 0.36 | 99 | 1012.5 |
| 20260510014753 | 48 | 52 | 2.0 | 2.0 | 0.00 | 0.36 | 0.36 | 99 | 1012.2 |
| 20260510014250 | 48 | 104 | 1.0 | 2.0 | 0.00 | 0.36 | 0.36 | 99 | 1012.2 |
| 20260510013746 | 48 | 66 | 0.0 | 1.0 | 0.00 | 0.36 | 0.36 | 99 | 1012.0 |
| 20260510013242 | 49 | 321 | 0.0 | 1.0 | 0.00 | 0.36 | 0.36 | 99 | 1012.0 |
| 20260510012737 | 49 | 50 | 0.0 | 1.0 | 0.00 | 0.36 | 0.36 | 99 | 1011.9 |
| 20260510012232 | 49 | 66 | 2.0 | 3.0 | 0.00 | 0.36 | 0.36 | 99 | 1011.9 |
| 20260510011732 | 49 | 50 | 1.0 | 2.0 | 0.00 | 0.36 | 0.36 | 99 | 1011.9 |
| 20260510011228 | 49 | 58 | 0.0 | 3.0 | 0.00 | 0.36 | 0.36 | 99 | 1011.8 |
| 20260510010725 | 49 | 58 | 2.0 | 2.0 | 0.00 | 0.36 | 0.36 | 99 | 1011.8 |
| 20260510010221 | 50 | 48 | 2.0 | 2.0 | 0.00 | 0.36 | 0.36 | 99 | 1011.8 |
| 20260510005718 | 50 | 44 | 0.0 | 2.0 | 0.00 | 0.36 | 0.36 | 99 | 1011.8 |
| 20260510005214 | 50 | 50 | 0.0 | 1.0 | 0.00 | 0.36 | 0.36 | 99 | 1011.7 |
| 20260510004713 | 50 | 55 | 1.0 | 2.0 | 0.00 | 0.36 | 0.36 | 99 | 1011.4 |
| 20260510004211 | 51 | 50 | 0.0 | 1.0 | 0.00 | 0.36 | 0.36 | 99 | 1011.4 |
| 20260510003708 | 51 | 76 | 0.0 | 0.0 | 0.00 | 0.36 | 0.36 | 99 | 1011.5 |
| 20260510003203 | 51 | 50 | 0.0 | 0.0 | 0.00 | 0.36 | 0.36 | 98 | 1011.7 |
| 20260510002657 | 52 | 25 | 0.0 | 2.0 | 0.00 | 0.36 | 0.36 | 98 | 1011.5 |
| 20260510002155 | 52 | 322 | 0.0 | 2.0 | 0.00 | 0.36 | 0.36 | 98 | 1011.6 |
| 20260510001652 | 52 | 99 | 0.0 | 1.0 | 0.00 | 0.36 | 0.36 | 97 | 1011.5 |
| 20260510001150 | 53 | 64 | 1.0 | 1.0 | 0.00 | 0.36 | 0.36 | 97 | 1011.5 |
| 20260510000650 | 53 | 89 | 0.0 | 1.0 | 0.00 | 0.36 | 0.36 | 97 | 1011.5 |
| 20260510000148 | 53 | 43 | 0.0 | 2.0 | 0.00 | 0.36 | 0.36 | 96 | 1011.5 |
| 20260509235644 | 53 | 49 | 0.0 | 1.0 | 0.00 | 0.36 | 0.36 | 96 | 1011.4 |
| 20260509235141 | 54 | 322 | 0.0 | 2.0 | 0.00 | 0.36 | 0.36 | 95 | 1011.3 |
| 20260509234637 | 54 | 355 | 0.0 | 2.0 | 0.00 | 0.36 | 0.36 | 95 | 1011.2 |
| 20260509234135 | 54 | 86 | 0.0 | 2.0 | 0.00 | 0.36 | 0.36 | 94 | 1011.2 |
| 20260509233633 | 55 | 47 | 0.0 | 4.0 | 0.00 | 0.36 | 0.36 | 93 | 1010.9 |
| 20260509233130 | 55 | 156 | 2.0 | 3.0 | 0.00 | 0.36 | 0.36 | 92 | 1011.1 |
| 20260509232626 | 55 | 85 | 1.0 | 2.0 | 0.00 | 0.36 | 0.36 | 91 | 1011.0 |
| 20260509232123 | 55 | 154 | 0.0 | 2.0 | 0.00 | 0.36 | 0.36 | 91 | 1011.0 |
| 20260509231619 | 55 | 162 | 3.0 | 4.0 | 0.00 | 0.36 | 0.36 | 91 | 1011.0 |
| 20260509231117 | 56 | 157 | 0.0 | 4.0 | 0.00 | 0.36 | 0.36 | 90 | 1010.8 |
| 20260509230614 | 56 | 197 | 2.0 | 7.0 | 0.00 | 0.36 | 0.36 | 90 | 1011.0 |
| 20260509230111 | 55 | 203 | 2.0 | 2.0 | 0.00 | 0.36 | 0.36 | 91 | 1010.9 |
| 20260509225607 | 56 | 134 | 2.0 | 4.0 | 0.00 | 0.36 | 0.36 | 91 | 1010.9 |
| 20260509225102 | 56 | 95 | 0.0 | 5.0 | 0.00 | 0.36 | 0.36 | 91 | 1010.7 |
| 20260509224558 | 56 | 29 | 0.0 | 3.0 | 0.00 | 0.36 | 0.36 | 92 | 1010.6 |
| 20260509224055 | 56 | 147 | 2.0 | 4.0 | 0.00 | 0.36 | 0.36 | 91 | 1010.7 |
| 20260509223552 | 57 | 89 | 1.0 | 9.0 | 0.00 | 0.36 | 0.36 | 89 | 1010.9 |
| 20260509223050 | 57 | 180 | 0.0 | 3.0 | 0.00 | 0.36 | 0.36 | 89 | 1011.0 |
| 20260509222545 | 57 | 183 | 2.0 | 7.0 | 0.00 | 0.36 | 0.36 | 89 | 1011.1 |
| 20260509222042 | 57 | 205 | 0.0 | 4.0 | 0.00 | 0.36 | 0.36 | 90 | 1011.0 |
| 20260509221537 | 57 | 19 | 3.0 | 7.0 | 0.00 | 0.36 | 0.36 | 89 | 1010.9 |
| 20260509221033 | 57 | 106 | 2.0 | 5.0 | 0.00 | 0.36 | 0.36 | 90 | 1011.0 |
| 20260509220529 | 57 | 20 | 2.0 | 4.0 | 0.00 | 0.36 | 0.36 | 92 | 1011.0 |
| 20260509220026 | 57 | 102 | 3.0 | 3.0 | 0.00 | 0.36 | 0.36 | 93 | 1011.2 |
| 20260509215521 | 57 | 75 | 0.0 | 3.0 | 0.00 | 0.36 | 0.36 | 93 | 1011.2 |
| 20260509215019 | 57 | 76 | 3.0 | 3.0 | 0.00 | 0.36 | 0.36 | 95 | 1011.2 |
| 20260509214516 | 56 | 341 | 0.0 | 2.0 | 0.00 | 0.36 | 0.36 | 95 | 1011.3 |
| 20260509214013 | 56 | 80 | 1.0 | 4.0 | 0.00 | 0.36 | 0.36 | 96 | 1011.4 |
| 20260509213509 | 55 | 114 | 3.0 | 6.0 | 0.00 | 0.36 | 0.36 | 96 | 1011.5 |
| 20260509213006 | 55 | 95 | 2.0 | 3.0 | 0.00 | 0.36 | 0.36 | 98 | 1011.5 |
| 20260509212503 | 55 | 151 | 1.0 | 4.0 | 0.00 | 0.36 | 0.36 | 98 | 1011.4 |
| 20260509212000 | 55 | 115 | 1.0 | 4.0 | 0.00 | 0.36 | 0.36 | 98 | 1011.5 |
| 20260509211455 | 54 | 53 | 4.0 | 6.0 | 0.00 | 0.36 | 0.36 | 98 | 1011.5 |
| 20260509210952 | 54 | 81 | 3.0 | 6.0 | 0.00 | 0.36 | 0.36 | 98 | 1011.6 |
| 20260509210449 | 54 | 180 | 5.0 | 6.0 | 0.00 | 0.36 | 0.36 | 98 | 1011.6 |
| 20260509205944 | 54 | 180 | 1.0 | 6.0 | 0.00 | 0.36 | 0.36 | 98 | 1011.7 |
| 20260509205439 | 54 | 122 | 2.0 | 4.0 | 0.00 | 0.36 | 0.36 | 98 | 1011.6 |
| 20260509204935 | 54 | 79 | 2.0 | 3.0 | 0.00 | 0.36 | 0.36 | 98 | 1011.8 |
| 20260509204432 | 54 | 97 | 2.0 | 4.0 | 0.00 | 0.36 | 0.36 | 98 | 1011.8 |
| 20260509203928 | 54 | 208 | 2.0 | 6.0 | 0.00 | 0.36 | 0.36 | 98 | 1011.7 |
| 20260509203424 | 54 | 70 | 3.0 | 3.0 | 0.00 | 0.36 | 0.36 | 99 | 1011.6 |
| 20260509202922 | 54 | 128 | 3.0 | 5.0 | 0.00 | 0.36 | 0.36 | 99 | 1011.7 |
| 20260509202418 | 54 | 117 | 1.0 | 3.0 | 0.00 | 0.36 | 0.36 | 99 | 1011.8 |
| 20260509201913 | 53 | 141 | 1.0 | 4.0 | 0.02 | 0.36 | 0.36 | 99 | 1011.7 |
| 20260509201408 | 54 | 68 | 0.0 | 2.0 | 0.00 | 0.35 | 0.35 | 99 | 1011.7 |
| 20260509200906 | 53 | 113 | 2.0 | 4.0 | 0.02 | 0.35 | 0.35 | 99 | 1011.6 |
| 20260509200405 | 53 | 103 | 2.0 | 2.0 | 0.07 | 0.35 | 0.35 | 99 | 1011.9 |
| 20260509195902 | 53 | 106 | 0.0 | 5.0 | 0.07 | 0.35 | 0.35 | 99 | 1011.8 |
| 20260509195402 | 53 | 72 | 2.0 | 4.0 | 0.07 | 0.34 | 0.34 | 99 | 1011.9 |
| 20260509194857 | 53 | 95 | 1.0 | 4.0 | 0.05 | 0.34 | 0.34 | 99 | 1011.9 |
| 20260509194353 | 52 | 187 | 1.0 | 6.0 | 0.07 | 0.33 | 0.33 | 99 | 1012.0 |
| 20260509193849 | 53 | 179 | 3.0 | 4.0 | 0.07 | 0.33 | 0.33 | 99 | 1012.1 |
| 20260509193344 | 53 | 36 | 1.0 | 4.0 | 0.05 | 0.32 | 0.32 | 99 | 1012.3 |
| 20260509192840 | 53 | 86 | 2.0 | 3.0 | 0.05 | 0.32 | 0.32 | 99 | 1012.4 |
| 20260509192336 | 53 | 146 | 0.0 | 3.0 | 0.05 | 0.31 | 0.31 | 99 | 1012.4 |
| 20260509191832 | 53 | 138 | 2.0 | 3.0 | 0.05 | 0.31 | 0.31 | 99 | 1012.6 |
| 20260509191328 | 52 | 102 | 1.0 | 4.0 | 0.05 | 0.30 | 0.30 | 99 | 1012.5 |
| 20260509190824 | 53 | 85 | 2.0 | 3.0 | 0.05 | 0.30 | 0.30 | 99 | 1012.5 |
| 20260509190321 | 53 | 72 | 3.0 | 4.0 | 0.05 | 0.29 | 0.29 | 99 | 1012.7 |
| 20260509185818 | 53 | 76 | 2.0 | 4.0 | 0.07 | 0.29 | 0.29 | 99 | 1012.5 |
| 20260509185309 | 52 | 98 | 1.0 | 3.0 | 0.07 | 0.28 | 0.28 | 99 | 1012.6 |
| 20260509184806 | 52 | 77 | 3.0 | 6.0 | 0.07 | 0.28 | 0.28 | 99 | 1012.7 |
| 20260509184304 | 52 | 95 | 3.0 | 4.0 | 0.05 | 0.27 | 0.27 | 99 | 1012.5 |
| 20260509183800 | 52 | 105 | 2.0 | 5.0 | 0.05 | 0.26 | 0.26 | 99 | 1012.6 |
| 20260509183255 | 52 | 114 | 3.0 | 6.0 | 0.05 | 0.26 | 0.26 | 99 | 1012.6 |
| 20260509182751 | 53 | 113 | 2.0 | 6.0 | 0.07 | 0.26 | 0.26 | 99 | 1012.7 |
| 20260509182249 | 53 | 114 | 2.0 | 5.0 | 0.09 | 0.25 | 0.25 | 99 | 1012.7 |
| 20260509181746 | 53 | 101 | 2.0 | 4.0 | 0.07 | 0.24 | 0.24 | 99 | 1012.7 |
| 20260509181243 | 53 | 145 | 2.0 | 4.0 | 0.07 | 0.24 | 0.24 | 99 | 1012.7 |
| 20260509180740 | 53 | 85 | 2.0 | 3.0 | 0.07 | 0.23 | 0.23 | 99 | 1012.6 |
| 20260509180236 | 53 | 84 | 2.0 | 4.0 | 0.05 | 0.22 | 0.22 | 99 | 1012.7 |
| 20260509175733 | 53 | 110 | 2.0 | 3.0 | 0.05 | 0.22 | 0.22 | 99 | 1012.7 |
| 20260509175229 | 53 | 126 | 3.0 | 3.0 | 0.02 | 0.21 | 0.21 | 99 | 1012.7 |
| 20260509174725 | 53 | 150 | 2.0 | 3.0 | 0.02 | 0.21 | 0.21 | 99 | 1012.7 |
| 20260509174221 | 53 | 246 | 2.0 | 4.0 | 0.02 | 0.20 | 0.20 | 99 | 1012.7 |
| 20260509173717 | 53 | 114 | 1.0 | 5.0 | 0.05 | 0.20 | 0.20 | 99 | 1012.4 |
| 20260509173213 | 53 | 120 | 1.0 | 4.0 | 0.02 | 0.20 | 0.20 | 99 | 1012.6 |
| 20260509172709 | 53 | 125 | 1.0 | 7.0 | 0.00 | 0.20 | 0.20 | 98 | 1012.6 |
| 20260509172206 | 53 | 122 | 1.0 | 5.0 | 0.00 | 0.20 | 0.20 | 98 | 1012.4 |
| 20260509171701 | 54 | 106 | 1.0 | 4.0 | 0.02 | 0.20 | 0.20 | 99 | 1012.5 |
| 20260509171157 | 53 | 104 | 1.0 | 8.0 | 0.02 | 0.19 | 0.19 | 99 | 1012.4 |
| 20260509170654 | 53 | 51 | 2.0 | 4.0 | 0.05 | 0.19 | 0.19 | 99 | 1012.7 |
| 20260509170151 | 53 | 111 | 2.0 | 2.0 | 0.05 | 0.19 | 0.19 | 99 | 1012.6 |
| 20260509165649 | 53 | 187 | 2.0 | 5.0 | 0.02 | 0.18 | 0.18 | 99 | 1012.4 |
| 20260509165144 | 53 | 47 | 2.0 | 3.0 | 0.05 | 0.18 | 0.18 | 99 | 1012.7 |
| 20260509164641 | 53 | 89 | 0.0 | 3.0 | 0.05 | 0.18 | 0.18 | 99 | 1012.5 |
| 20260509164136 | 53 | 147 | 0.0 | 4.0 | 0.12 | 0.17 | 0.17 | 98 | 1012.7 |
| 20260509163634 | 53 | 144 | 1.0 | 3.0 | 0.12 | 0.17 | 0.17 | 98 | 1012.7 |
| 20260509163130 | 53 | 121 | 1.0 | 2.0 | 0.09 | 0.15 | 0.15 | 97 | 1012.7 |
| 20260509162627 | 53 | 101 | 1.0 | 2.0 | 0.07 | 0.15 | 0.15 | 97 | 1012.8 |
| 20260509162123 | 54 | 76 | 2.0 | 2.0 | 0.05 | 0.14 | 0.14 | 96 | 1012.7 |
| 20260509161620 | 54 | 124 | 0.0 | 3.0 | 0.02 | 0.13 | 0.13 | 96 | 1012.6 |
| 20260509161115 | 54 | 92 | 1.0 | 4.0 | 0.00 | 0.13 | 0.13 | 95 | 1012.7 |
| 20260509160611 | 54 | 126 | 0.0 | 2.0 | 0.00 | 0.13 | 0.13 | 95 | 1013.0 |
| 20260509160106 | 54 | 126 | 0.0 | 2.0 | 0.00 | 0.13 | 0.13 | 95 | 1012.7 |
| 20260509155603 | 54 | 106 | 0.0 | 3.0 | 0.02 | 0.13 | 0.13 | 95 | 1012.7 |
| 20260509155059 | 54 | 84 | 1.0 | 2.0 | 0.02 | 0.13 | 0.13 | 96 | 1012.9 |
| 20260509154555 | 54 | 38 | 1.0 | 3.0 | 0.00 | 0.13 | 0.13 | 96 | 1012.9 |
| 20260509154052 | 54 | 96 | 0.0 | 3.0 | 0.00 | 0.13 | 0.13 | 95 | 1012.9 |
| 20260509153549 | 54 | 87 | 1.0 | 2.0 | 0.00 | 0.13 | 0.13 | 96 | 1012.9 |
| 20260509153046 | 54 | 59 | 2.0 | 2.0 | 0.02 | 0.13 | 0.13 | 97 | 1013.0 |
| 20260509152542 | 53 | 62 | 0.0 | 2.0 | 0.02 | 0.13 | 0.13 | 97 | 1012.9 |
| 20260509152040 | 53 | 89 | 1.0 | 2.0 | 0.00 | 0.12 | 0.12 | 97 | 1012.7 |
| 20260509151535 | 53 | 44 | 0.0 | 1.0 | 0.02 | 0.12 | 0.12 | 98 | 1013.0 |
| 20260509151033 | 53 | 57 | 1.0 | 2.0 | 0.05 | 0.12 | 0.12 | 98 | 1013.1 |
| 20260509150531 | 52 | 58 | 1.0 | 3.0 | 0.05 | 0.12 | 0.12 | 98 | 1013.2 |
| 20260509150029 | 52 | 98 | 1.0 | 2.0 | 0.02 | 0.11 | 0.11 | 98 | 1013.2 |
| 20260509145524 | 52 | 88 | 2.0 | 2.0 | 0.02 | 0.11 | 0.11 | 97 | 1013.1 |
| 20260509145019 | 52 | 58 | 2.0 | 3.0 | 0.02 | 0.11 | 0.11 | 98 | 1013.3 |
| 20260509144517 | 52 | 110 | 2.0 | 3.0 | 0.05 | 0.11 | 0.11 | 98 | 1013.6 |
| 20260509144014 | 52 | 81 | 1.0 | 2.0 | 0.02 | 0.10 | 0.10 | 98 | 1013.5 |
| 20260509143511 | 52 | 75 | 0.0 | 1.0 | 0.02 | 0.10 | 0.10 | 98 | 1013.4 |
| 20260509143009 | 52 | 80 | 1.0 | 2.0 | 0.05 | 0.10 | 0.10 | 98 | 1013.5 |
| 20260509142504 | 52 | 68 | 1.0 | 2.0 | 0.02 | 0.09 | 0.09 | 98 | 1013.4 |
| 20260509141959 | 52 | 59 | 1.0 | 2.0 | 0.00 | 0.09 | 0.09 | 98 | 1013.3 |
| 20260509141456 | 52 | 62 | 1.0 | 1.0 | 0.02 | 0.09 | 0.09 | 98 | 1013.2 |
| 20260509140953 | 52 | 55 | 1.0 | 2.0 | 0.00 | 0.09 | 0.09 | 98 | 1013.3 |
| 20260509140449 | 51 | 58 | 2.0 | 2.0 | 0.02 | 0.09 | 0.09 | 98 | 1013.4 |
| 20260509135948 | 51 | 157 | 0.0 | 3.0 | 0.02 | 0.08 | 0.08 | 98 | 1013.3 |
| 20260509135445 | 51 | 85 | 2.0 | 3.0 | 0.05 | 0.08 | 0.08 | 98 | 1013.3 |
| 20260509134942 | 51 | 76 | 1.0 | 2.0 | 0.05 | 0.08 | 0.08 | 98 | 1013.2 |
| 20260509134439 | 51 | 62 | 3.0 | 3.0 | 0.05 | 0.07 | 0.07 | 98 | 1013.4 |
| 20260509133937 | 51 | 24 | 0.0 | 2.0 | 0.02 | 0.07 | 0.07 | 98 | 1013.3 |
| 20260509133433 | 51 | 86 | 0.0 | 5.0 | 0.05 | 0.07 | 0.07 | 98 | 1013.4 |
| 20260509132932 | 51 | 63 | 3.0 | 3.0 | 0.05 | 0.06 | 0.06 | 98 | 1013.1 |
| 20260509132429 | 51 | 64 | 0.0 | 3.0 | 0.02 | 0.06 | 0.06 | 98 | 1013.2 |
| 20260509131926 | 51 | 37 | 1.0 | 2.0 | 0.00 | 0.06 | 0.06 | 98 | 1013.1 |
| 20260509131424 | 51 | 71 | 1.0 | 2.0 | 0.00 | 0.06 | 0.06 | 98 | 1013.0 |
| 20260509130920 | 51 | 43 | 4.0 | 5.0 | 0.02 | 0.06 | 0.06 | 98 | 1012.9 |
| 20260509130415 | 51 | 36 | 1.0 | 3.0 | 0.00 | 0.05 | 0.05 | 98 | 1013.0 |
| 20260509125913 | 51 | 108 | 2.0 | 3.0 | 0.02 | 0.05 | 0.05 | 98 | 1013.0 |
| 20260509125409 | 51 | 59 | 4.0 | 6.0 | 0.00 | 0.05 | 0.05 | 98 | 1012.8 |
| 20260509124905 | 50 | 71 | 3.0 | 4.0 | 0.02 | 0.05 | 0.05 | 99 | 1012.9 |
| 20260509124402 | 51 | 56 | 2.0 | 5.0 | 0.00 | 0.04 | 0.04 | 99 | 1012.9 |
| 20260509123900 | 51 | 66 | 3.0 | 4.0 | 0.00 | 0.04 | 0.04 | 99 | 1012.9 |
| 20260509123357 | 50 | 50 | 1.0 | 5.0 | 0.00 | 0.04 | 0.04 | 99 | 1012.9 |
| 20260509122853 | 51 | 317 | 2.0 | 4.0 | 0.00 | 0.04 | 0.04 | 99 | 1013.0 |
| 20260509122350 | 50 | 45 | 0.0 | 2.0 | 0.00 | 0.04 | 0.04 | 99 | 1012.9 |
| 20260509121846 | 50 | 72 | 1.0 | 3.0 | 0.00 | 0.04 | 0.04 | 99 | 1013.0 |
| 20260509121343 | 50 | 89 | 2.0 | 3.0 | 0.00 | 0.04 | 0.04 | 99 | 1013.1 |
| 20260509120842 | 50 | 45 | 2.0 | 3.0 | 0.00 | 0.04 | 0.04 | 99 | 1013.2 |
| 20260509120339 | 50 | 72 | 3.0 | 4.0 | 0.00 | 0.04 | 0.04 | 99 | 1013.3 |
| 20260509115837 | 50 | 54 | 1.0 | 3.0 | 0.00 | 0.04 | 0.04 | 99 | 1013.2 |
| 20260509115334 | 50 | 74 | 3.0 | 5.0 | 0.00 | 0.04 | 0.04 | 99 | 1013.1 |
| 20260509114832 | 49 | 54 | 1.0 | 3.0 | 0.00 | 0.04 | 0.04 | 99 | 1013.1 |
| 20260509114330 | 49 | 60 | 3.0 | 6.0 | 0.00 | 0.04 | 0.04 | 99 | 1013.2 |
| 20260509113829 | 49 | 38 | 2.0 | 5.0 | 0.00 | 0.04 | 0.04 | 99 | 1013.3 |
| 20260509113326 | 49 | 26 | 2.0 | 5.0 | 0.00 | 0.04 | 0.04 | 99 | 1013.3 |
| 20260509112822 | 49 | 55 | 2.0 | 5.0 | 0.00 | 0.04 | 0.04 | 99 | 1013.4 |
| 20260509112320 | 49 | 43 | 3.0 | 5.0 | 0.00 | 0.04 | 0.04 | 99 | 1013.3 |
| 20260509111817 | 49 | 57 | 1.0 | 4.0 | 0.00 | 0.04 | 0.04 | 99 | 1013.5 |
| 20260509111314 | 49 | 42 | 2.0 | 4.0 | 0.00 | 0.04 | 0.04 | 99 | 1013.3 |
| 20260509110811 | 48 | 52 | 1.0 | 5.0 | 0.00 | 0.04 | 0.04 | 99 | 1013.4 |
| 20260509110307 | 48 | 28 | 3.0 | 6.0 | 0.00 | 0.04 | 0.04 | 99 | 1013.4 |
| 20260509105806 | 48 | 42 | 2.0 | 4.0 | 0.00 | 0.04 | 0.04 | 99 | 1013.3 |
| 20260509105306 | 48 | 55 | 3.0 | 5.0 | 0.00 | 0.04 | 0.04 | 99 | 1013.5 |
| 20260509104800 | 48 | 41 | 5.0 | 6.0 | 0.00 | 0.04 | 0.04 | 99 | 1013.3 |
| 20260509104256 | 48 | 50 | 1.0 | 2.0 | 0.00 | 0.04 | 0.04 | 99 | 1013.2 |
| 20260509103755 | 48 | 81 | 1.0 | 2.0 | 0.00 | 0.04 | 0.04 | 99 | 1013.3 |
| 20260509103251 | 48 | 81 | 0.0 | 2.0 | 0.00 | 0.04 | 0.04 | 99 | 1013.5 |
| 20260509102750 | 48 | 111 | 0.0 | 2.0 | 0.00 | 0.04 | 0.04 | 99 | 1013.5 |
| 20260509102247 | 48 | 85 | 2.0 | 4.0 | 0.00 | 0.04 | 0.04 | 99 | 1013.6 |
| 20260509101743 | 48 | 57 | 2.0 | 4.0 | 0.00 | 0.04 | 0.04 | 99 | 1013.5 |
| 20260509101239 | 48 | 39 | 3.0 | 4.0 | 0.00 | 0.04 | 0.04 | 99 | 1013.7 |
| 20260509100737 | 48 | 66 | 2.0 | 3.0 | 0.00 | 0.04 | 0.04 | 99 | 1013.5 |
| 20260509100234 | 48 | 62 | 2.0 | 4.0 | 0.00 | 0.04 | 0.04 | 99 | 1013.4 |
| 20260509095730 | 48 | 42 | 4.0 | 8.0 | 0.00 | 0.04 | 0.04 | 99 | 1013.5 |
| 20260509095228 | 48 | 65 | 2.0 | 5.0 | 0.00 | 0.04 | 0.04 | 99 | 1013.3 |
| 20260509094725 | 48 | 52 | 4.0 | 6.0 | 0.00 | 0.04 | 0.04 | 99 | 1013.3 |
| 20260509094221 | 48 | 36 | 8.0 | 8.0 | 0.00 | 0.04 | 0.04 | 99 | 1013.4 |
| 20260509093719 | 48 | 49 | 3.0 | 5.0 | 0.00 | 0.04 | 0.04 | 99 | 1013.3 |
| 20260509093216 | 48 | 51 | 4.0 | 5.0 | 0.00 | 0.04 | 0.04 | 99 | 1013.3 |
| 20260509092714 | 48 | 46 | 2.0 | 3.0 | 0.00 | 0.04 | 0.04 | 99 | 1013.5 |
| 20260509092212 | 48 | 51 | 2.0 | 3.0 | 0.00 | 0.04 | 0.04 | 99 | 1013.4 |
| 20260509091710 | 48 | 47 | 2.0 | 3.0 | 0.00 | 0.04 | 0.04 | 99 | 1013.5 |
| 20260509091206 | 48 | 42 | 2.0 | 3.0 | 0.00 | 0.04 | 0.04 | 99 | 1013.5 |
| 20260509090704 | 48 | 74 | 2.0 | 3.0 | 0.00 | 0.04 | 0.04 | 99 | 1013.6 |
| 20260509090201 | 48 | 55 | 2.0 | 3.0 | 0.00 | 0.04 | 0.04 | 99 | 1013.6 |
| 20260509085659 | 48 | 50 | 2.0 | 3.0 | 0.02 | 0.04 | 0.04 | 99 | 1013.8 |
| 20260509085155 | 48 | 52 | 3.0 | 4.0 | 0.02 | 0.04 | 0.04 | 99 | 1013.7 |
| 20260509084652 | 47 | 71 | 3.0 | 3.0 | 0.00 | 0.04 | 0.04 | 99 | 1014.0 |
| 20260509084149 | 48 | 70 | 2.0 | 3.0 | 0.00 | 0.04 | 0.04 | 99 | 1014.1 |
| 20260509083647 | 48 | 84 | 1.0 | 2.0 | 0.00 | 0.04 | 0.04 | 99 | 1014.2 |
| 20260509083142 | 48 | 71 | 1.0 | 3.0 | 0.00 | 0.04 | 0.04 | 99 | 1014.3 |
| 20260509082640 | 48 | 62 | 1.0 | 3.0 | 0.00 | 0.04 | 0.04 | 99 | 1014.2 |
| 20260509082137 | 48 | 49 | 2.0 | 3.0 | 0.00 | 0.04 | 0.04 | 99 | 1014.3 |
| 20260509081634 | 47 | 55 | 2.0 | 2.0 | 0.00 | 0.04 | 0.04 | 99 | 1014.1 |
| 20260509081131 | 47 | 80 | 2.0 | 3.0 | 0.00 | 0.04 | 0.04 | 99 | 1014.2 |
| 20260509080629 | 47 | 53 | 1.0 | 2.0 | 0.00 | 0.04 | 0.04 | 99 | 1014.2 |
| 20260509080127 | 48 | 68 | 0.0 | 2.0 | 0.00 | 0.04 | 0.04 | 99 | 1014.2 |
| 20260509075625 | 48 | 9 | 1.0 | 2.0 | 0.00 | 0.04 | 0.04 | 99 | 1013.9 |
| 20260509075122 | 48 | 44 | 0.0 | 2.0 | 0.00 | 0.04 | 0.04 | 99 | 1013.9 |
| 20260509074618 | 48 | 66 | 0.0 | 2.0 | 0.00 | 0.04 | 0.04 | 99 | 1014.0 |
| 20260509074115 | 48 | 141 | 0.0 | 2.0 | 0.00 | 0.04 | 0.04 | 99 | 1014.0 |
| 20260509073612 | 48 | 125 | 2.0 | 2.0 | 0.00 | 0.04 | 0.04 | 99 | 1013.9 |
| 20260509073108 | 48 | 132 | 0.0 | 3.0 | 0.02 | 0.04 | 0.04 | 99 | 1013.9 |
| 20260509072605 | 48 | 83 | 1.0 | 3.0 | 0.02 | 0.04 | 0.04 | 99 | 1014.0 |
| 20260509072102 | 48 | 57 | 3.0 | 4.0 | 0.00 | 0.04 | 0.04 | 99 | 1014.0 |
| 20260509071558 | 48 | 50 | 2.0 | 3.0 | 0.02 | 0.04 | 0.04 | 99 | 1014.3 |
| 20260509071056 | 48 | 56 | 2.0 | 3.0 | 0.02 | 0.04 | 0.04 | 99 | 1014.2 |
| 20260509070553 | 48 | 45 | 1.0 | 3.0 | 0.00 | 0.03 | 0.03 | 99 | 1014.1 |
| 20260509070049 | 48 | 38 | 0.0 | 2.0 | 0.00 | 0.03 | 0.03 | 99 | 1014.3 |
| 20260509065545 | 48 | 164 | 0.0 | 1.0 | 0.00 | 0.03 | 0.03 | 99 | 1014.3 |
| 20260509065041 | 47 | 68 | 0.0 | 1.0 | 0.00 | 0.03 | 0.03 | 99 | 1014.2 |
| 20260509064539 | 47 | 80 | 0.0 | 1.0 | 0.00 | 0.03 | 0.03 | 99 | 1014.2 |
| 20260509064037 | 47 | 89 | 1.0 | 2.0 | 0.00 | 0.03 | 0.03 | 99 | 1014.3 |
| 20260509063532 | 47 | 74 | 2.0 | 3.0 | 0.00 | 0.03 | 0.03 | 99 | 1014.7 |
| 20260509063030 | 48 | 76 | 3.0 | 3.0 | 0.00 | 0.03 | 0.03 | 99 | 1014.7 |
| 20260509062526 | 48 | 37 | 0.0 | 5.0 | 0.00 | 0.03 | 0.03 | 99 | 1014.9 |
| 20260509062024 | 48 | 61 | 2.0 | 2.0 | 0.02 | 0.03 | 0.03 | 99 | 1015.0 |
| 20260509061521 | 47 | 78 | 2.0 | 3.0 | 0.02 | 0.03 | 0.03 | 99 | 1015.2 |
| 20260509061018 | 47 | 77 | 1.0 | 2.0 | 0.02 | 0.03 | 0.03 | 99 | 1015.2 |
| 20260509060515 | 47 | 97 | 1.0 | 2.0 | 0.05 | 0.03 | 0.03 | 99 | 1015.2 |
| 20260509060011 | 47 | 89 | 1.0 | 2.0 | 0.05 | 0.02 | 0.02 | 99 | 1015.1 |
| 20260509055506 | 47 | 78 | 1.0 | 2.0 | 0.05 | 0.02 | 0.02 | 99 | 1015.0 |
| 20260509055003 | 47 | 83 | 1.0 | 2.0 | 0.05 | 0.02 | 0.02 | 99 | 1015.1 |
| 20260509054500 | 47 | 159 | 0.0 | 3.0 | 0.02 | 0.01 | 0.01 | 99 | 1015.0 |
| 20260509053958 | 47 | 125 | 0.0 | 2.0 | 0.02 | 0.01 | 0.01 | 99 | 1014.7 |
| 20260509053456 | 47 | 89 | 0.0 | 2.0 | 0.00 | 0.00 | 0.00 | 99 | 1014.3 |
| 20260509052953 | 47 | 60 | 1.0 | 2.0 | 0.00 | 0.00 | 0.00 | 99 | 1014.2 |
| 20260509052450 | 47 | 54 | 0.0 | 2.0 | 0.00 | 0.00 | 0.00 | 99 | 1014.3 |
| 20260509051948 | 47 | 147 | 0.0 | 1.0 | 0.00 | 0.00 | 0.00 | 99 | 1014.0 |
| 20260509051446 | 47 | 64 | 1.0 | 2.0 | 0.00 | 0.00 | 0.00 | 99 | 1014.0 |
| 20260509050943 | 47 | 46 | 3.0 | 3.0 | 0.00 | 0.00 | 0.00 | 99 | 1014.0 |
| 20260509050439 | 47 | 61 | 1.0 | 3.0 | 0.00 | 0.00 | 0.00 | 99 | 1014.4 |
| 20260509045936 | 47 | 75 | 0.0 | 2.0 | 0.00 | 0.00 | 0.00 | 99 | 1014.7 |
| 20260509045433 | 47 | 45 | 0.0 | 2.0 | 0.00 | 0.00 | 0.00 | 99 | 1014.4 |
| 20260509044930 | 47 | 52 | 2.0 | 2.0 | 0.00 | 0.00 | 0.00 | 99 | 1014.5 |
| 20260509044428 | 47 | 60 | 1.0 | 2.0 | 0.00 | 0.00 | 0.00 | 99 | 1014.3 |
| 20260509043925 | 46 | 38 | 2.0 | 4.0 | 0.00 | 0.00 | 0.00 | 99 | 1014.3 |
| 20260509043420 | 46 | 48 | 2.0 | 4.0 | 0.00 | 0.00 | 0.00 | 99 | 1014.5 |
| 20260509042916 | 46 | 42 | 2.0 | 3.0 | 0.00 | 0.00 | 0.00 | 99 | 1014.4 |
| 20260509042413 | 46 | 335 | 2.0 | 3.0 | 0.00 | 0.00 | 0.00 | 99 | 1014.4 |
| 20260509041909 | 46 | 57 | 1.0 | 3.0 | 0.02 | 0.00 | 0.00 | 99 | 1014.9 |
| 20260509041406 | 46 | 45 | 3.0 | 5.0 | 0.02 | 0.00 | 0.00 | 99 | 1014.7 |
| 20260509040905 | 46 | 54 | 2.0 | 3.0 | 0.00 | 0.00 | 0.00 | 99 | 1014.4 |
| 20260509040402 | 46 | 67 | 0.0 | 2.0 | 0.00 | 0.00 | 0.00 | 99 | 1014.7 |
| 20260509035859 | 46 | 50 | 0.0 | 1.0 | 0.00 | 0.13 | 0.13 | 99 | 1015.0 |
| 20260509035356 | 45 | 69 | 1.0 | 2.0 | 0.00 | 0.13 | 0.13 | 99 | 1014.8 |
| 20260509034852 | 45 | 71 | 1.0 | 2.0 | 0.00 | 0.13 | 0.13 | 99 | 1014.8 |
| 20260509034350 | 45 | 81 | 1.0 | 2.0 | 0.00 | 0.13 | 0.13 | 99 | 1014.9 |
| 20260509033846 | 45 | 48 | 1.0 | 2.0 | 0.00 | 0.13 | 0.13 | 99 | 1014.9 |